Terminal Aerodrome Forecast
Issued by NWS Des Moines, IA

Home | Current Version | Previous Version | Text Only | Print | Product List | Glossary On
Versions: 1 2 3 4 5 6 7 8 9 10 11 12 13 14 15 16 17 18 19 20 21 22 23 24 25 26 27 28 29 30 31 32 33 34 35 36 37 38 39 40 41 42
000
FTUS43 KDMX 201734
TAFDSM
TAF
KDSM 201734Z 2018/2118 30012KT P6SM SCT040 BKN150
     FM202300 31007KT P6SM FEW100
     FM211500 33012G18KT P6SM BKN060=

USA.gov is the U.S. government's official web portal to all federal, state and local government web resources and services.